[[{"header":{"parameterUnit":"m.s-1","parameterCategory":1,"la1":30.2991,"la2":30.254,"lo1":-89.0895,"lo2":-89.0444,"dy":0.0017,"dx":0.0017,"nx":28,"ny":28,"refTime":"2024-08-05T21:00:00:Z","depth":0,"parameterNumber":2,"parameterNumberName":"U-component_of_WINDS"},"data":[0,0,0,0,0,0,0,0,0,0,0,0,0,0,0,0,0,0,0,0,0,0,0,0,0,0,0,0,0,0,0,0,0,0,0,0,0,0,0,0,0,0,0,0,0,0,0,0,0,0,0,0,0,0,0,0,0,0,3.5124,3.5124,0,3.5143,3.5143,3.5143,3.51,3.5098,3.5097,3.5096,3.5115,3.5117,3.5119,0,0,0,0,0,0,0,0,0,0,0,0,0,3.505,3.5052,3.5124,3.5124,3.5124,3.5143,3.5143,3.5144,3.51,3.5098,3.5096,3.5095,3.5115,3.5117,3.5119,0,0,0,0,0,0,0,0,0,0,0,0,0,3.5077,3.5052,3.5123,3.5105,3.5103,3.5143,3.5143,3.5144,3.51,3.5098,3.5096,3.5094,3.5114,3.5117,3.512,3.5179,0,0,3.5128,3.5129,0,0,0,0,0,0,0,0,3.5076,3.508,3.5107,3.5106,3.5104,3.5117,3.5125,3.5155,3.5101,3.5101,3.5095,3.5093,3.5118,3.512,3.5128,3.518,3.518,3.5128,3.513,3.5131,3.5132,0,0,0,0,0,0,0,3.5074,3.5079,3.5131,3.5108,3.5106,3.5096,3.5097,3.513,3.5121,3.5101,3.5098,3.5101,3.5116,3.5126,3.5128,3.5181,3.5128,3.5131,3.5132,3.5133,3.5285,3.5288,0,0,0,0,0,0,3.5074,3.5078,3.5131,3.5132,3.5085,3.5099,3.51,3.5115,3.5121,3.5119,3.5103,3.5099,3.5122,3.5125,3.5129,3.5201,3.5131,3.5134,3.5135,3.5283,3.5286,3.5289,0,0,0,0,0,0,3.5073,3.508,3.513,3.5104,3.511,3.5102,3.5119,3.5116,3.5126,3.5122,3.512,3.5114,3.512,3.5125,3.5167,3.5201,3.5135,3.5137,3.528,3.5284,3.5287,3.5344,0,0,0,0,0,0,3.5071,3.5079,3.5101,3.5105,3.5111,3.5168,3.5121,3.5118,3.513,3.5126,3.5132,3.5131,3.5119,3.5164,3.517,3.5204,3.514,3.5277,3.5282,3.5286,3.534,3.535,3.5358,0,0,0,0,0,3.5069,3.5116,3.5102,3.5109,3.5138,3.517,3.5173,3.5159,3.5133,3.5156,3.5154,3.513,3.5196,3.5168,3.5175,3.521,3.5275,3.5281,3.5286,3.5335,3.5348,3.5358,0,0,0,0,0,0,3.5115,3.5116,3.5101,3.515,3.5161,3.5162,3.519,3.5172,3.5189,3.5184,3.5166,3.5168,3.5214,3.5216,3.5185,3.527,3.5231,3.5238,3.5267,3.5278,3.5287,3.5287,3.5142,0,0,0,0,0,3.5131,3.5157,3.5156,3.5199,3.5205,3.5197,3.521,3.5199,3.5208,3.5212,3.5213,3.5223,3.5247,3.5262,3.5283,3.5339,3.5342,3.5367,3.5376,3.5384,3.5391,3.5424,3.5436,3.5306,3.5306,3.5306,0,0,3.5165,3.5168,3.5185,3.5209,3.5215,3.5243,3.5201,3.5231,3.5252,3.5216,3.5258,3.5259,3.5269,3.532,3.5342,3.5323,3.5427,3.5391,3.5397,3.54,3.5431,3.5443,3.5454,3.531,3.5309,3.5309,0,0,3.524,3.5244,3.5283,3.5291,3.5301,3.5296,3.5305,3.5311,3.531,3.5351,3.5327,3.5351,3.5391,3.54,3.541,3.5493,3.5473,3.55,3.5549,3.5581,3.5591,3.56,3.5632,3.5644,3.5506,3.5506,3.5507,0,3.528,3.5321,3.5305,3.5338,3.535,3.5321,3.5361,3.5369,3.5386,3.5396,3.5374,3.5425,3.543,3.5484,3.5504,3.5512,3.5524,3.5499,3.5591,3.56,3.5608,3.5639,3.565,3.551,3.5509,3.5509,3.5509,0,3.5371,3.54,3.5429,3.5448,3.5464,3.55,3.5491,3.5508,3.5496,3.5494,3.5537,3.5542,3.5565,3.5577,3.5564,3.563,3.5618,3.5594,3.5556,3.5624,3.5653,3.5664,3.5515,3.5514,3.5513,3.5512,0,0,3.5476,3.5487,3.5498,3.5508,3.5518,3.5541,3.5576,3.5599,3.5616,3.5629,3.5661,3.5696,3.5675,3.5687,3.5675,3.5703,3.5772,3.5676,3.5676,3.5696,3.5848,3.5867,3.5881,3.5759,3.5761,3.5762,3.5848,0,3.5552,3.5614,3.5602,3.5663,3.5691,3.5665,3.5696,3.5707,3.5706,3.573,3.5729,3.5755,3.5724,3.5731,3.5758,3.5758,3.5803,3.5751,3.5789,3.579,3.5789,3.5895,3.5915,3.5995,3.5858,3.586,3.5861,0,3.565,3.5668,3.5732,3.5742,3.5753,3.5782,3.5803,3.5826,3.5839,3.5836,3.5851,3.5835,3.5872,3.5833,3.5885,3.5851,3.5865,3.5868,3.5871,3.5875,3.5831,3.5904,3.602,3.6033,3.5878,3.5877,3.5876,0,3.5723,3.5764,3.5808,3.5817,3.5828,3.5849,3.5855,3.5865,3.5881,3.59,3.591,3.5933,3.5946,3.5965,3.5957,3.5928,3.6012,3.5971,3.6012,3.6013,3.6032,3.6031,3.6154,3.6039,3.6038,3.6038,3.6038,0,3.5811,3.5852,3.5842,3.5869,3.5915,3.5901,3.5947,3.595,3.596,3.5989,3.5966,3.5994,3.598,3.6007,3.6,3.6047,3.6052,3.6052,3.605,3.6055,3.6056,3.6066,3.6061,3.6041,3.6041,3.604,3.6039,0,3.59,3.5895,3.5942,3.595,3.5953,3.5987,3.5993,3.602,3.6018,3.6055,3.6062,3.606,3.609,3.6084,3.6117,3.6113,3.6171,3.6161,3.6168,3.6166,3.6209,3.6206,3.6344,3.6363,3.6233,3.6234,3.6235,0,3.5958,3.5989,3.6001,3.6019,3.6026,3.6055,3.6072,3.606,3.6078,3.6097,3.6122,3.615,3.6173,3.6224,3.6225,3.6251,3.6243,3.629,3.6247,3.6252,3.6247,3.6246,3.625,3.6299,3.63,3.6301,3.6302,0,3.6061,3.6058,3.6082,3.6107,3.6128,3.6146,3.6163,3.6179,3.6169,3.6191,3.6222,3.624,3.6275,3.6305,3.633,3.6337,3.6319,3.6316,3.6328,3.6334,3.6337,3.6339,3.6193,3.6313,3.6312,3.6311,3.6311,3.631,3.6138,3.6166,3.6179,3.6208,3.622,3.6237,3.6263,3.6265,3.6291,3.632,3.6311,3.6348,3.6362,3.6394,3.6404,3.6433,3.6416,3.6431,3.6436,3.6441,3.6447,3.6331,3.6437,3.6437,3.6437,3.6436,3.6436,0,3.6242,3.625,3.6277,3.6302,3.6326,3.6307,3.6325,3.6346,3.6379,3.6394,3.6417,3.6455,3.6485,3.6489,3.6518,3.6541,3.6534,3.6549,3.6548,3.655,3.646,3.6448,3.6554,3.6554,3.6554,3.6554,3.6554,3.6554,3.63,3.6347,3.6345,3.6399,3.6406,3.6442,3.6455,3.6471,3.6483,3.6527,3.6552,3.6554,3.6566,3.6595,3.6622,3.6623,3.6636,3.6655,3.6653,3.6568,3.6556,3.6545,3.6534,3.6657,3.6657,3.6741,3.6742,3.6742]},{"header":{"parameterUnit":"m.s-1","parameterCategory":1,"la1":30.2991,"la2":30.254,"lo1":-89.0895,"lo2":-89.0444,"dy":0.0017,"dx":0.0017,"nx":28,"ny":28,"refTime":"2024-08-05T21:00:00:Z","depth":0,"parameterNumber":3,"parameterNumberName":"V-component_of_WINDS"},"data":[0,0,0,0,0,0,0,0,0,0,0,0,0,0,0,0,0,0,0,0,0,0,0,0,0,0,0,0,0,0,0,0,0,0,0,0,0,0,0,0,0,0,0,0,0,0,0,0,0,0,0,0,0,0,0,0,0,0,-2.5171,-2.5171,0,-2.5215,-2.5216,-2.5216,-2.5233,-2.5233,-2.5233,-2.5233,-2.5278,-2.5279,-2.528,0,0,0,0,0,0,0,0,0,0,0,0,0,-2.5103,-2.5104,-2.5171,-2.5172,-2.5172,-2.5215,-2.5216,-2.5216,-2.5233,-2.5233,-2.5233,-2.5233,-2.5277,-2.5279,-2.528,0,0,0,0,0,0,0,0,0,0,0,0,0,-2.5138,-2.5104,-2.5171,-2.5186,-2.5188,-2.5215,-2.5216,-2.5216,-2.5233,-2.5233,-2.5233,-2.5233,-2.5277,-2.5279,-2.5281,-2.5296,0,0,-2.5287,-2.5287,0,0,0,0,0,0,0,0,-2.5136,-2.5141,-2.5183,-2.5185,-2.5187,-2.5219,-2.5208,-2.5243,-2.5233,-2.5216,-2.5233,-2.5233,-2.5258,-2.5262,-2.527,-2.5298,-2.53,-2.5287,-2.5288,-2.5289,-2.5289,0,0,0,0,0,0,0,-2.5134,-2.5139,-2.5188,-2.5184,-2.5186,-2.5191,-2.5196,-2.5215,-2.5237,-2.5218,-2.5219,-2.5224,-2.5259,-2.5268,-2.5271,-2.5301,-2.5287,-2.5288,-2.529,-2.529,-2.5346,-2.5347,0,0,0,0,0,0,-2.5129,-2.5137,-2.5187,-2.519,-2.5161,-2.5192,-2.5198,-2.5209,-2.5237,-2.5242,-2.5224,-2.5225,-2.5265,-2.5269,-2.5273,-2.5295,-2.5289,-2.5291,-2.5292,-2.5346,-2.5347,-2.5347,0,0,0,0,0,0,-2.5127,-2.5133,-2.5185,-2.5164,-2.5171,-2.5193,-2.5206,-2.521,-2.5219,-2.5242,-2.5246,-2.5229,-2.5265,-2.527,-2.5291,-2.5297,-2.5291,-2.5293,-2.5346,-2.5346,-2.5347,-2.5338,0,0,0,0,0,0,-2.5125,-2.5132,-2.5138,-2.5164,-2.5172,-2.5202,-2.5206,-2.5211,-2.5222,-2.5223,-2.5248,-2.5252,-2.5265,-2.5288,-2.5293,-2.5299,-2.5295,-2.5345,-2.5346,-2.5347,-2.5337,-2.5338,-2.5338,0,0,0,0,0,-2.5123,-2.5133,-2.5138,-2.5144,-2.5179,-2.5202,-2.5207,-2.5222,-2.5222,-2.5229,-2.5244,-2.5251,-2.5295,-2.529,-2.5296,-2.5303,-2.5345,-2.5346,-2.5346,-2.5337,-2.5338,-2.5338,0,0,0,0,0,0,-2.5106,-2.5136,-2.5143,-2.5161,-2.5179,-2.5205,-2.5213,-2.5221,-2.5239,-2.5239,-2.5257,-2.5263,-2.5282,-2.5294,-2.5288,-2.5321,-2.5321,-2.5323,-2.5312,-2.5312,-2.5312,-2.5309,-2.5296,0,0,0,0,0,-2.5105,-2.5121,-2.5147,-2.5161,-2.517,-2.519,-2.52,-2.5211,-2.523,-2.5237,-2.5254,-2.5272,-2.5291,-2.5302,-2.532,-2.5339,-2.5346,-2.5347,-2.5347,-2.5347,-2.5349,-2.5363,-2.5364,-2.5349,-2.5349,-2.5349,0,0,-2.5102,-2.5121,-2.513,-2.5158,-2.5173,-2.519,-2.5196,-2.5213,-2.5226,-2.524,-2.5261,-2.5274,-2.5296,-2.5316,-2.5326,-2.5327,-2.5355,-2.5348,-2.5348,-2.535,-2.5363,-2.5365,-2.5366,-2.535,-2.535,-2.535,0,0,-2.5107,-2.5121,-2.5136,-2.5152,-2.5175,-2.5188,-2.5192,-2.5217,-2.5227,-2.5248,-2.526,-2.5276,-2.5306,-2.5322,-2.5333,-2.5346,-2.5354,-2.5351,-2.5353,-2.5366,-2.5367,-2.5368,-2.5374,-2.5376,-2.5353,-2.5353,-2.5353,0,-2.51,-2.5126,-2.5142,-2.516,-2.5172,-2.5187,-2.5203,-2.5217,-2.5244,-2.5253,-2.5253,-2.5294,-2.5309,-2.5335,-2.5338,-2.5347,-2.5352,-2.5349,-2.5365,-2.5367,-2.5368,-2.5374,-2.5376,-2.5352,-2.5353,-2.5353,-2.5353,0,-2.5118,-2.5136,-2.5145,-2.5172,-2.5186,-2.5202,-2.5222,-2.5234,-2.5244,-2.5258,-2.5281,-2.53,-2.5324,-2.533,-2.5339,-2.5358,-2.5358,-2.5362,-2.5362,-2.5369,-2.5375,-2.5377,-2.5352,-2.5352,-2.5352,-2.5352,0,0,-2.5111,-2.515,-2.5153,-2.5166,-2.5194,-2.5208,-2.5226,-2.5249,-2.526,-2.5279,-2.5295,-2.5322,-2.5326,-2.534,-2.5351,-2.5362,-2.5374,-2.5365,-2.5366,-2.5367,-2.5398,-2.5395,-2.5398,-2.5379,-2.5379,-2.538,-2.5396,0,-2.512,-2.5152,-2.5169,-2.5194,-2.5212,-2.5227,-2.5243,-2.5262,-2.5276,-2.5294,-2.5309,-2.5329,-2.5332,-2.5341,-2.5353,-2.537,-2.538,-2.5369,-2.5395,-2.5396,-2.539,-2.5401,-2.5398,-2.5412,-2.5399,-2.5399,-2.5399,0,-2.5134,-2.5154,-2.5181,-2.5209,-2.5217,-2.5231,-2.5255,-2.5271,-2.5294,-2.5304,-2.532,-2.5332,-2.5352,-2.5352,-2.5381,-2.5373,-2.5385,-2.5395,-2.5396,-2.54,-2.5398,-2.5405,-2.5417,-2.542,-2.5403,-2.5403,-2.5402,0,-2.5128,-2.5162,-2.5184,-2.5195,-2.5227,-2.5237,-2.5251,-2.5274,-2.5287,-2.5308,-2.5318,-2.5341,-2.5353,-2.5371,-2.5389,-2.5387,-2.5418,-2.5418,-2.5427,-2.5427,-2.5433,-2.5433,-2.5448,-2.5439,-2.5439,-2.5439,-2.5439,0,-2.5136,-2.5153,-2.5182,-2.5195,-2.5215,-2.5234,-2.5253,-2.5269,-2.5289,-2.5306,-2.5321,-2.5337,-2.5359,-2.5378,-2.5392,-2.5416,-2.5421,-2.543,-2.5434,-2.5429,-2.5428,-2.5438,-2.5438,-2.544,-2.544,-2.544,-2.5439,0,-2.5133,-2.5153,-2.5178,-2.5207,-2.5215,-2.5229,-2.5255,-2.5269,-2.5284,-2.5306,-2.5312,-2.5337,-2.5361,-2.5381,-2.5411,-2.5421,-2.5445,-2.5449,-2.5438,-2.544,-2.5449,-2.5448,-2.5471,-2.5476,-2.5463,-2.5463,-2.5463,0,-2.5137,-2.515,-2.5182,-2.5195,-2.5209,-2.5229,-2.5244,-2.5265,-2.528,-2.5308,-2.5319,-2.5344,-2.5365,-2.5402,-2.5423,-2.5447,-2.5452,-2.5459,-2.5456,-2.5452,-2.5454,-2.5454,-2.5456,-2.5459,-2.5459,-2.5459,-2.5459,0,-2.5142,-2.5152,-2.5173,-2.5198,-2.5216,-2.5236,-2.5257,-2.5266,-2.5291,-2.5307,-2.5332,-2.5348,-2.5381,-2.5406,-2.5433,-2.5448,-2.5458,-2.546,-2.5464,-2.546,-2.5453,-2.5458,-2.544,-2.5459,-2.5459,-2.5459,-2.5459,-2.5459,-2.5144,-2.5157,-2.5183,-2.5206,-2.5224,-2.5244,-2.5259,-2.5278,-2.5299,-2.5327,-2.5338,-2.5364,-2.5389,-2.5426,-2.5442,-2.5463,-2.5464,-2.5469,-2.5471,-2.5472,-2.5472,-2.5449,-2.5468,-2.5468,-2.5468,-2.5468,-2.5468,0,-2.5151,-2.5169,-2.519,-2.522,-2.5239,-2.5247,-2.5272,-2.5287,-2.531,-2.5332,-2.5353,-2.5383,-2.5408,-2.5432,-2.5458,-2.5471,-2.5476,-2.5477,-2.5477,-2.548,-2.5469,-2.5463,-2.5472,-2.5472,-2.5472,-2.5472,-2.5472,-2.5472,-2.5157,-2.5181,-2.5195,-2.5229,-2.5247,-2.5272,-2.5286,-2.5305,-2.5323,-2.5356,-2.5377,-2.5393,-2.5416,-2.5445,-2.5469,-2.5476,-2.5485,-2.5485,-2.5493,-2.5482,-2.5481,-2.548,-2.5476,-2.5487,-2.5487,-2.5504,-2.5504,-2.5504]}]]